[[{"header":{"parameterUnit":"m.s-1","parameterCategory":1,"la1":30.2991,"la2":30.254,"lo1":-89.0895,"lo2":-89.0444,"dy":0.0017,"dx":0.0017,"nx":28,"ny":28,"refTime":"2024-02-27T03:00:00:Z","depth":0,"parameterNumber":2,"parameterNumberName":"U-component_of_WINDS"},"data":[0,0,0,0,0,0,0,0,0,0,0,0,0,0,0,0,0,0,0,0,0,0,0,0,0,0,0,0,0,0,0,0,0,0,0,0,0,0,0,0,0,0,0,0,0,0,0,0,0,0,0,0,0,0,0,0,0,0,-0.0221,-0.0221,0,-0.0257,-0.0258,-0.0258,-0.0299,-0.0299,-0.03,-0.0301,-0.0338,-0.0338,-0.0339,0,0,0,0,0,0,0,0,0,0,0,0,0,-0.0185,-0.0186,-0.022,-0.0221,-0.0221,-0.0257,-0.0258,-0.0258,-0.0299,-0.0299,-0.03,-0.0301,-0.0338,-0.0338,-0.0339,0,0,0,0,0,0,0,0,0,0,0,0,0,-0.0209,-0.0186,-0.022,-0.0246,-0.0249,-0.0257,-0.0258,-0.0259,-0.0299,-0.0299,-0.03,-0.0301,-0.0338,-0.0338,-0.0339,-0.0325,0,0,-0.0341,-0.0341,0,0,0,0,0,0,0,0,-0.0208,-0.021,-0.0242,-0.0244,-0.0247,-0.0274,-0.0259,-0.0281,-0.0298,-0.028,-0.0301,-0.0302,-0.0316,-0.0318,-0.0323,-0.0327,-0.0329,-0.0341,-0.0341,-0.0342,-0.0342,0,0,0,0,0,0,0,-0.0206,-0.0209,-0.0235,-0.0242,-0.0245,-0.0256,-0.026,-0.0263,-0.0292,-0.0281,-0.0284,-0.0288,-0.0318,-0.0323,-0.0325,-0.0329,-0.0341,-0.0341,-0.0342,-0.0342,-0.0324,-0.0323,0,0,0,0,0,0,-0.0201,-0.0207,-0.0234,-0.0236,-0.0229,-0.0256,-0.026,-0.0265,-0.0292,-0.0297,-0.0287,-0.029,-0.0321,-0.0324,-0.0326,-0.0312,-0.0342,-0.0342,-0.0343,-0.0325,-0.0324,-0.0323,0,0,0,0,0,0,-0.02,-0.0203,-0.0232,-0.0223,-0.0227,-0.0255,-0.026,-0.0265,-0.027,-0.0297,-0.0302,-0.0287,-0.0322,-0.0325,-0.0325,-0.0314,-0.0343,-0.0343,-0.0326,-0.0325,-0.0323,-0.0283,0,0,0,0,0,0,-0.0199,-0.0202,-0.0197,-0.0222,-0.0228,-0.0231,-0.0259,-0.0265,-0.0271,-0.0275,-0.0298,-0.0303,-0.0323,-0.0324,-0.0326,-0.0315,-0.0344,-0.0327,-0.0325,-0.0324,-0.0286,-0.0281,-0.0277,0,0,0,0,0,-0.0197,-0.0184,-0.0196,-0.0199,-0.0222,-0.023,-0.0233,-0.0256,-0.027,-0.0265,-0.0283,-0.0302,-0.0315,-0.0324,-0.0326,-0.0315,-0.0328,-0.0326,-0.0324,-0.0288,-0.0282,-0.0277,0,0,0,0,0,0,-0.0156,-0.0188,-0.0202,-0.0196,-0.021,-0.0237,-0.0231,-0.0249,-0.0259,-0.0262,-0.0291,-0.0296,-0.0292,-0.0304,-0.0313,-0.0304,-0.0324,-0.0323,-0.0296,-0.0291,-0.0286,-0.0283,-0.0344,0,0,0,0,0,-0.0146,-0.015,-0.0178,-0.0171,-0.0177,-0.0203,-0.0207,-0.0224,-0.0239,-0.0245,-0.0263,-0.0277,-0.0284,-0.0288,-0.0297,-0.0289,-0.0294,-0.0282,-0.0278,-0.0274,-0.0272,-0.0268,-0.0263,-0.0317,-0.0317,-0.0317,0,0,-0.0126,-0.0144,-0.0145,-0.0163,-0.0175,-0.0179,-0.0207,-0.021,-0.0212,-0.0246,-0.0247,-0.026,-0.0278,-0.0274,-0.0273,-0.0284,-0.0259,-0.0271,-0.0268,-0.0268,-0.0266,-0.0261,-0.0256,-0.0315,-0.0315,-0.0316,0,0,-0.0091,-0.0105,-0.0101,-0.0113,-0.0132,-0.015,-0.0149,-0.0173,-0.0183,-0.0185,-0.021,-0.0214,-0.0226,-0.0238,-0.0245,-0.0216,-0.0234,-0.0218,-0.0194,-0.019,-0.0186,-0.0182,-0.0171,-0.0167,-0.0216,-0.0216,-0.0216,0,-0.0064,-0.007,-0.0096,-0.0097,-0.0104,-0.0135,-0.0131,-0.0142,-0.0162,-0.0166,-0.0179,-0.0195,-0.0209,-0.0208,-0.0201,-0.0206,-0.0206,-0.0215,-0.0184,-0.0181,-0.0178,-0.0168,-0.0164,-0.0214,-0.0214,-0.0215,-0.0215,0,-0.0035,-0.0039,-0.0033,-0.0052,-0.0059,-0.0057,-0.0083,-0.0087,-0.0104,-0.012,-0.0122,-0.0141,-0.0153,-0.0155,-0.0171,-0.0156,-0.0162,-0.0179,-0.02,-0.017,-0.0161,-0.0158,-0.0211,-0.0212,-0.0213,-0.0213,0,0,0.0027,-0.0008,-0.0005,-0.0014,-0.0038,-0.0042,-0.0042,-0.0055,-0.0057,-0.0071,-0.0072,-0.0082,-0.0098,-0.0106,-0.0125,-0.0122,-0.0097,-0.0139,-0.014,-0.013,-0.0082,-0.0068,-0.0063,-0.011,-0.0109,-0.0109,-0.008,0,0.0059,0.0058,0.0033,0.0038,0.0035,0.0004,0.0004,-0.0011,-0.0027,-0.0033,-0.0051,-0.0057,-0.0078,-0.0083,-0.0082,-0.01,-0.0087,-0.0103,-0.011,-0.011,-0.0103,-0.0058,-0.0044,-0.0015,-0.0077,-0.0076,-0.0076,0,0.0096,0.0085,0.009,0.0065,0.0062,0.0063,0.0049,0.0043,0.0025,0.0014,0.0004,-0.0018,-0.002,-0.004,-0.0044,-0.0054,-0.0059,-0.0068,-0.0068,-0.0068,-0.009,-0.0056,-0.0006,-0.0002,-0.007,-0.0071,-0.0071,0,0.0142,0.0127,0.0128,0.0121,0.0092,0.0093,0.0081,0.0062,0.0056,0.0043,0.0039,0.0026,0.002,0.001,-0.0014,-0.0027,-0.0014,-0.0037,-0.0024,-0.0023,-0.0018,-0.0018,0.0033,-0.0023,-0.0023,-0.0024,-0.0024,0,0.0181,0.0186,0.0149,0.015,0.0153,0.0125,0.0129,0.0114,0.0097,0.0094,0.0066,0.0064,0.0032,0.0026,0.0007,0.0007,0.0004,-0.0005,-0.001,-0.0002,-0.0,-0.0004,-0.0006,-0.0022,-0.0023,-0.0023,-0.0023,0,0.0234,0.0209,0.0208,0.0181,0.0173,0.0178,0.0154,0.0153,0.0135,0.0131,0.0129,0.01,0.0092,0.0066,0.0051,0.0038,0.0045,0.0035,0.0051,0.0048,0.0063,0.0063,0.0115,0.012,0.0059,0.006,0.006,0,0.0261,0.0264,0.0236,0.0232,0.0221,0.0215,0.0208,0.0179,0.0174,0.0153,0.0155,0.0144,0.0134,0.0121,0.0099,0.0087,0.0078,0.0096,0.0076,0.0084,0.0079,0.008,0.008,0.0102,0.0102,0.0103,0.0104,0,0.0313,0.03,0.0291,0.0278,0.0271,0.0259,0.0246,0.0244,0.0212,0.0207,0.0197,0.0189,0.0174,0.0163,0.0148,0.0135,0.0114,0.011,0.0112,0.0122,0.0132,0.0128,0.0065,0.0109,0.0109,0.0108,0.0108,0.0108,0.0354,0.0355,0.0336,0.0327,0.0313,0.0301,0.03,0.0281,0.0272,0.0258,0.024,0.0233,0.0214,0.0191,0.0179,0.0173,0.0162,0.0166,0.0167,0.0169,0.0173,0.0131,0.017,0.017,0.017,0.0169,0.0169,0,0.0405,0.0391,0.0383,0.0365,0.0358,0.0338,0.0322,0.0317,0.0311,0.0295,0.0285,0.0274,0.0264,0.024,0.0227,0.0227,0.0217,0.0225,0.0225,0.0223,0.0183,0.0183,0.0233,0.0233,0.0233,0.0233,0.0233,0.0233,0.0431,0.0431,0.0416,0.041,0.0395,0.0388,0.038,0.0369,0.0356,0.0345,0.0336,0.0321,0.0301,0.0286,0.0276,0.0269,0.0266,0.0277,0.0267,0.0231,0.0225,0.022,0.0219,0.0276,0.0276,0.0307,0.0308,0.0308]},{"header":{"parameterUnit":"m.s-1","parameterCategory":1,"la1":30.2991,"la2":30.254,"lo1":-89.0895,"lo2":-89.0444,"dy":0.0017,"dx":0.0017,"nx":28,"ny":28,"refTime":"2024-02-27T03:00:00:Z","depth":0,"parameterNumber":3,"parameterNumberName":"V-component_of_WINDS"},"data":[0,0,0,0,0,0,0,0,0,0,0,0,0,0,0,0,0,0,0,0,0,0,0,0,0,0,0,0,0,0,0,0,0,0,0,0,0,0,0,0,0,0,0,0,0,0,0,0,0,0,0,0,0,0,0,0,0,0,5.2253,5.2252,0,5.2167,5.2166,5.2165,5.2085,5.2084,5.2083,5.2082,5.1989,5.1988,5.1986,0,0,0,0,0,0,0,0,0,0,0,0,0,5.2343,5.2341,5.2253,5.2252,5.2251,5.2167,5.2166,5.2165,5.2085,5.2084,5.2082,5.2081,5.199,5.1988,5.1986,0,0,0,0,0,0,0,0,0,0,0,0,0,5.2285,5.2341,5.2253,5.2201,5.2195,5.2167,5.2166,5.2164,5.2085,5.2083,5.2082,5.2081,5.199,5.1988,5.1986,5.2001,0,0,5.1979,5.1978,0,0,0,0,0,0,0,0,5.2288,5.2282,5.221,5.2204,5.2198,5.2135,5.2163,5.2109,5.2085,5.2127,5.2082,5.208,5.2039,5.2032,5.2019,5.1997,5.1993,5.1979,5.1977,5.1976,5.1976,0,0,0,0,0,0,0,5.2292,5.2285,5.2219,5.2209,5.2202,5.218,5.217,5.2153,5.2092,5.2123,5.2117,5.2108,5.2035,5.2022,5.2017,5.1991,5.1979,5.1977,5.1975,5.1974,5.1976,5.1977,0,0,0,0,0,0,5.2305,5.2289,5.2221,5.2216,5.2241,5.218,5.2169,5.2157,5.2092,5.2081,5.2109,5.2105,5.2026,5.2019,5.2013,5.2026,5.1976,5.1974,5.1973,5.1974,5.1976,5.1977,0,0,0,0,0,0,5.2307,5.23,5.2225,5.2251,5.224,5.218,5.2167,5.2156,5.2142,5.2082,5.207,5.2107,5.2025,5.2016,5.2005,5.2022,5.1973,5.1971,5.1972,5.1975,5.1977,5.2053,0,0,0,0,0,0,5.231,5.2301,5.2308,5.2252,5.2239,5.222,5.2168,5.2155,5.2139,5.2132,5.2077,5.2066,5.2023,5.2009,5.2002,5.2018,5.1969,5.1971,5.1973,5.1976,5.2049,5.2057,5.2065,0,0,0,0,0,5.2314,5.2332,5.2308,5.2301,5.2246,5.2221,5.2213,5.2165,5.2141,5.2146,5.2107,5.2068,5.2021,5.2008,5.2,5.2015,5.1969,5.1973,5.1976,5.2045,5.2056,5.2065,0,0,0,0,0,0,5.239,5.2324,5.2297,5.2298,5.2266,5.2208,5.2213,5.2178,5.2151,5.2146,5.2085,5.2074,5.2069,5.204,5.2027,5.2026,5.1989,5.1991,5.2045,5.2054,5.2063,5.207,5.1967,0,0,0,0,0,5.2408,5.2395,5.2336,5.2343,5.2328,5.2274,5.2261,5.2226,5.219,5.2176,5.2136,5.2101,5.2078,5.2065,5.204,5.2044,5.203,5.205,5.2058,5.2065,5.2068,5.2066,5.2074,5.1988,5.1988,5.1988,0,0,5.2443,5.2404,5.24,5.2357,5.2328,5.2315,5.2263,5.2251,5.224,5.2174,5.2161,5.213,5.2087,5.2083,5.2079,5.2059,5.2088,5.2069,5.2075,5.2074,5.207,5.2078,5.2086,5.199,5.199,5.1989,0,0,5.25,5.247,5.2472,5.2444,5.2402,5.2365,5.2365,5.2312,5.229,5.2276,5.2226,5.2211,5.2173,5.2144,5.2125,5.217,5.2132,5.2163,5.2206,5.2205,5.2212,5.2218,5.2234,5.224,5.2166,5.2166,5.2166,0,5.2549,5.2528,5.2477,5.2468,5.245,5.2391,5.2391,5.2366,5.2317,5.2305,5.2284,5.2235,5.2202,5.219,5.2201,5.2187,5.2185,5.217,5.2216,5.2221,5.2225,5.224,5.2246,5.217,5.2169,5.2169,5.2169,0,5.259,5.2576,5.2582,5.2538,5.252,5.2516,5.2463,5.2451,5.2417,5.2383,5.2368,5.2326,5.2292,5.2286,5.2253,5.2269,5.2258,5.2227,5.219,5.2239,5.2251,5.2256,5.2176,5.2174,5.2173,5.2172,0,0,5.2694,5.2621,5.2624,5.2603,5.2551,5.2539,5.2531,5.2499,5.2489,5.2457,5.2448,5.2417,5.2388,5.2366,5.2328,5.2328,5.2365,5.2296,5.2294,5.231,5.2379,5.2404,5.2411,5.234,5.2341,5.2341,5.2383,0,5.2743,5.2727,5.268,5.2679,5.2664,5.2607,5.26,5.2566,5.2533,5.2515,5.2477,5.2456,5.2419,5.2405,5.2402,5.2362,5.2378,5.2358,5.233,5.2329,5.2343,5.2417,5.2443,5.2484,5.2387,5.2388,5.2389,0,5.2798,5.2771,5.2768,5.2716,5.2708,5.2703,5.2669,5.2653,5.2612,5.2588,5.2563,5.2522,5.2508,5.2473,5.2453,5.244,5.2426,5.2404,5.2404,5.24,5.2363,5.2415,5.2496,5.2503,5.2396,5.2395,5.2395,0,5.2875,5.2837,5.283,5.2813,5.2752,5.275,5.2724,5.2683,5.2666,5.2635,5.2624,5.2592,5.2574,5.255,5.25,5.2479,5.2485,5.2446,5.2463,5.2465,5.2468,5.2468,5.2548,5.2458,5.2458,5.2458,5.2458,0,5.2934,5.2935,5.2864,5.286,5.2858,5.2803,5.2802,5.277,5.2733,5.2721,5.2668,5.2657,5.2592,5.2573,5.2533,5.2522,5.2515,5.2494,5.2483,5.2499,5.2501,5.2489,5.2484,5.246,5.2459,5.2459,5.2459,0,5.302,5.2972,5.2961,5.2904,5.289,5.2891,5.2841,5.2834,5.2797,5.2782,5.2775,5.2716,5.2691,5.2639,5.2599,5.2572,5.257,5.2551,5.2585,5.2578,5.2598,5.2597,5.2673,5.268,5.2586,5.2587,5.2588,0,5.3062,5.3061,5.3004,5.2992,5.2969,5.2951,5.2934,5.2878,5.2862,5.2816,5.2814,5.2785,5.2759,5.272,5.2673,5.2642,5.2622,5.265,5.2617,5.2632,5.2622,5.2623,5.2622,5.2658,5.266,5.2661,5.2661,0,5.314,5.3117,5.3095,5.3065,5.3046,5.3019,5.2989,5.2982,5.2919,5.2903,5.2878,5.2857,5.2816,5.2788,5.2749,5.272,5.268,5.2672,5.2675,5.2691,5.271,5.27,5.2605,5.2671,5.267,5.2669,5.2669,5.2668,5.3205,5.3201,5.3161,5.3138,5.3109,5.3082,5.3073,5.3035,5.3013,5.2977,5.2944,5.2921,5.2879,5.2823,5.2797,5.2776,5.2757,5.276,5.2761,5.2763,5.2769,5.2713,5.2769,5.2769,5.2768,5.2768,5.2768,0,5.3281,5.3252,5.3231,5.3192,5.3173,5.3138,5.3102,5.3089,5.307,5.3034,5.301,5.2979,5.295,5.2901,5.2868,5.2861,5.2841,5.2854,5.2854,5.2848,5.2789,5.279,5.287,5.287,5.287,5.287,5.287,5.287,5.3319,5.331,5.3282,5.3258,5.3228,5.3206,5.3189,5.3163,5.3135,5.3103,5.308,5.3048,5.3006,5.2969,5.2941,5.2927,5.2917,5.2935,5.2915,5.2861,5.2852,5.2843,5.2844,5.2933,5.2934,5.2976,5.2976,5.2976]}]]